Overview Statistics Trail Chart Weather Telemetry Raw packets
 

This is the latest recevied weather packets stored in our database for station/object WX5KDM. If no packets are shown the sender has not sent any weather packets the latest 10 day(s).

<< 49 50 51 52 53 54 55 >>
Time Temp. Humidity Pressure Rain* Wind** Luminosity Snow
1788284987 35° C 53% 1019.3 hPa 0 mm - - -
1788284682 35° C 52% 1019.3 hPa 0 mm - - -
1788284378 35° C 48% 1019.5 hPa 0 mm - - -
1788284073 35° C 53% 1019.4 hPa 0 mm - - -
1788283770 35.56° C 49% 1019.4 hPa 0 mm - - -
1788283465 35.56° C 50% 1019.5 hPa 0 mm - - -
1788283158 35° C 51% 1019.5 hPa 0 mm - - -
1788282856 35.56° C 52% 1019.5 hPa 0 mm - - -
1788282554 35.56° C 51% 1019.5 hPa 0 mm - - -
1788282250 34.44° C 52% 1019.7 hPa 0 mm - - -
1788281943 34.44° C 53% 1019.7 hPa 0 mm - - -
1788281638 33.89° C 54% 1019.8 hPa 0 mm - - -
1788281335 33.89° C 56% 1019.6 hPa 0 mm - - -
1788281030 33.89° C 55% 1019.8 hPa 0 mm - - -
1788280733 35° C 52% 1019.8 hPa 0 mm - - -
1788280424 35° C 54% 1020 hPa 0 mm - - -
1788280119 35° C 55% 1020 hPa 0 mm - - -
1788279818 34.44° C 54% 1020 hPa 0 mm - - -
1788279518 33.89° C 55% 1020.1 hPa 0 mm - - -
1788279212 34.44° C 54% 1020.2 hPa 0 mm - - -
1788278907 34.44° C 54% 1020.2 hPa 0 mm - - -
1788278604 34.44° C 55% 1020.1 hPa 0 mm - - -
1788278303 33.89° C 57% 1020.3 hPa 0 mm - - -
1788277998 34.44° C 58% 1020.4 hPa 0 mm - - -
1788277694 34.44° C 59% 1020.3 hPa 0 mm - - -

* Rain latest hour (hover to see other rain measurements)
** Current wind speed in m/s (hover to see current wind gust speed)